Weather History for KMVL - December, 2012

Change the Weather History Date:

Monday, December 10, 2012

  Actual Average Record
Temperature  
Mean Temperature 36 °F 25 °F  
Max Temperature 43 °F 34 °F - ()
Min Temperature 29 °F 16 °F - ()
Degree Days  
Heating Degree Days 29 40  
Month to date heating degree days 305 383  
Since 1 July heating degree days 1999 2211  
Moisture  
Dew Point 35 °F    
Average Humidity 91    
Maximum Humidity 100    
Minimum Humidity 82    
Precipitation  
Precipitation 0.90 in 0.09 in - ()
Month to date precipitation 2.01 0.97  
Year to date precipitation 21.25 34.33  
Sea Level Pressure  
Sea Level Pressure 29.68 in    
Wind  
Wind Speed 3 mph (SW)    
Max Wind Speed 16 mph    
Max Gust Speed 24 mph    
Visibility 6 miles    
Events Rain , Snow    
T = Trace of Precipitation, MM = Missing Value Source: NWS Daily Summary

Daily Weather History Graph

Daily Weather History Graph

Search for Another Location

Airport or City:

Trip Planner

Search our weather history database for the weather conditions in past years. The results will help you decide how hot, cold, wet, or windy it might be!

Date:

Astronomy

Dec. 10, 2012 Rise Set
Actual Time 7:16 AM EST 4:10 PM EST
Civil Twilight 6:43 AM EST 4:43 PM EST
Nautical Twilight 6:06 AM EST 5:20 PM EST
Astronomical Twilight 5:31 AM EST 5:55 PM EST
Moon 3:51 AM EST (12/10) 2:01 PM EST (12/10)
Length of Visible Light 10h 00m
Length of Day
8h 53m
Waning Crescent, 10% of the Moon is Illuminated
Dec 10
Waning Crescent
Dec 13
New
Dec 20
First Quarter
Dec 28
Full
Jan 4
Last Quarter

Hourly Weather History & Observations

Time (EST) Temp. Windchill Dew Point Humidity Pressure Visibility Wind Dir Wind Speed Gust Speed Precip Events Conditions
12:17 AM 30.2 °F 26.7 °F 26.6 °F 86% 30.08 in 1.2 mi NNW 3.5 mph - 0.01 in Snow Light Snow
12:22 AM 30.2 °F - 26.6 °F 86% 30.08 in 1.0 mi Calm Calm - 0.02 in Snow Light Snow
12:29 AM 28.4 °F 24.6 °F 26.6 °F 93% 30.07 in 0.8 mi NNW 3.5 mph - 0.03 in Snow Light Snow
12:40 AM 30.2 °F - 26.6 °F 86% 30.07 in 1.2 mi Calm Calm - 0.03 in Snow Light Snow
12:46 AM 30.2 °F - 26.6 °F 86% 30.06 in 1.8 mi Calm Calm - 0.04 in Snow Light Snow
12:54 AM 30.0 °F - 27.0 °F 88% 30.08 in 2.5 mi Calm Calm - 0.04 in Snow Light Snow
1:20 AM 30.2 °F - 28.4 °F 93% 30.04 in 2.5 mi Calm Calm - 0.01 in Snow Light Snow
1:27 AM 30.2 °F - 28.4 °F 93% 30.03 in 3.0 mi Calm Calm - 0.01 in Snow Light Snow
1:46 AM 33.8 °F 30.8 °F 30.2 °F 87% 30.02 in 1.8 mi Variable 3.5 mph - 0.01 in Snow Light Snow
1:54 AM 33.1 °F 30.0 °F 30.0 °F 89% 30.04 in 1.8 mi South 3.5 mph - 0.02 in Snow Light Snow
2:03 AM 33.8 °F 30.8 °F 30.2 °F 87% 30.01 in 2.0 mi Variable 3.5 mph - 0.00 in Snow Light Snow
3:02 AM 35.6 °F 29.9 °F 30.2 °F 81% 29.96 in 7.0 mi Variable 6.9 mph - 0.00 in Rain Light Rain
3:29 AM 35.6 °F 31.7 °F 30.2 °F 81% 29.94 in 10.0 mi SW 4.6 mph - 0.01 in Rain Light Rain
3:54 AM 35.1 °F 31.0 °F 30.9 °F 85% 29.96 in 5.0 mi Variable 4.6 mph - 0.03 in Rain Light Rain
4:54 AM 35.1 °F - 32.0 °F 89% 29.91 in 5.0 mi Calm Calm - 0.05 in Rain Light Rain
5:54 AM 36.0 °F - 33.1 °F 89% 29.86 in 5.0 mi Calm Calm - 0.03 in Rain Rain
6:54 AM 37.0 °F - 34.0 °F 89% 29.82 in 7.0 mi Calm Calm - 0.06 in Rain Light Rain
7:54 AM 37.9 °F 32.7 °F 34.0 °F 86% 29.78 in 6.0 mi SW 6.9 mph - 0.07 in Rain Light Rain
8:18 AM 37.4 °F 32.1 °F 33.8 °F 87% 29.74 in 4.0 mi SW 6.9 mph - 0.02 in Rain Light Rain
8:27 AM 37.4 °F 32.1 °F 35.6 °F 93% 29.73 in 4.0 mi Variable 6.9 mph - 0.03 in Rain Light Rain
8:54 AM 37.9 °F 34.4 °F 35.1 °F 89% 29.75 in 6.0 mi South 4.6 mph 16.1 mph 0.05 in Rain Light Rain
9:54 AM 37.9 °F 32.1 °F 36.0 °F 93% 29.70 in 6.0 mi SSW 8.1 mph - 0.03 in Rain Light Rain
10:07 AM 37.4 °F 31.4 °F 35.6 °F 93% 29.66 in 8.0 mi SSW 8.1 mph - 0.00 in Rain Light Rain
10:54 AM 39.0 °F 32.8 °F 36.0 °F 89% 29.66 in 9.0 mi SW 9.2 mph - 0.00 in   Overcast
11:54 AM 39.0 °F 35.7 °F 37.0 °F 93% 29.63 in 10.0 mi SE 4.6 mph - N/A   Overcast
12:07 PM 39.2 °F 37.0 °F 37.4 °F 93% 29.60 in 10.0 mi Variable 3.5 mph - N/A   Overcast
12:14 PM 39.2 °F - 37.4 °F 93% 29.59 in 10.0 mi Calm Calm - N/A   Overcast
12:51 PM 39.2 °F - 37.4 °F 93% 29.58 in 10.0 mi Calm Calm - N/A   Overcast
12:54 PM 39.9 °F - 37.9 °F 93% 29.60 in 10.0 mi Calm Calm - N/A   Overcast
1:23 PM 39.2 °F 37.0 °F 37.4 °F 93% 29.56 in 10.0 mi South 3.5 mph - N/A   Overcast
1:54 PM 41.0 °F 39.0 °F 39.0 °F 93% 29.57 in 10.0 mi SSE 3.5 mph - N/A   Overcast
2:17 PM 39.2 °F 34.2 °F 37.4 °F 93% 29.54 in 10.0 mi ESE 6.9 mph - N/A   Overcast
2:26 PM 41.0 °F 38.0 °F 37.4 °F 87% 29.53 in 10.0 mi Variable 4.6 mph - N/A   Overcast
2:41 PM 41.0 °F - 39.2 °F 93% 29.52 in 10.0 mi Calm Calm - N/A   Overcast
2:54 PM 41.0 °F - 39.0 °F 93% 29.54 in 10.0 mi Calm Calm - N/A   Overcast
3:23 PM 39.2 °F - 37.4 °F 93% 29.50 in 10.0 mi Calm Calm - N/A   Overcast
3:54 PM 39.9 °F - 37.9 °F 93% 29.52 in 10.0 mi Calm Calm - N/A   Overcast
4:34 PM 39.2 °F - 39.2 °F 100% 29.49 in 7.0 mi Calm Calm - 0.02 in Rain Light Rain
4:54 PM 39.9 °F - 39.0 °F 97% 29.51 in 4.0 mi Calm Calm - 0.03 in Rain Light Rain
5:17 PM 39.2 °F - 37.4 °F 93% 29.48 in 2.5 mi Calm Calm - 0.02 in Rain Light Rain
5:29 PM 39.2 °F - 37.4 °F 93% 29.48 in 1.8 mi Calm Calm - 0.03 in Rain Light Rain
5:39 PM 39.2 °F - 39.2 °F 100% 29.48 in 2.0 mi Calm Calm - 0.04 in Rain Light Rain
5:54 PM 39.9 °F - 39.0 °F 97% 29.50 in 1.5 mi Calm Calm - 0.06 in Rain Light Rain
6:10 PM 39.2 °F - 39.2 °F 100% 29.48 in 1.0 mi Calm Calm - 0.02 in Rain Light Rain
6:14 PM 39.2 °F - 37.4 °F 93% 29.48 in 1.2 mi Calm Calm - 0.02 in Rain Light Rain
6:27 PM 39.2 °F - 39.2 °F 100% 29.48 in 2.5 mi Calm Calm - 0.05 in Rain Rain
6:37 PM 39.2 °F 37.0 °F 39.2 °F 100% 29.48 in 1.2 mi North 3.5 mph - 0.08 in Rain Rain
6:50 PM 42.8 °F 39.3 °F 39.2 °F 87% 29.50 in 3.0 mi North 5.8 mph - 0.11 in Rain Rain
6:54 PM 42.1 °F 39.2 °F 39.9 °F 92% 29.52 in 4.0 mi NE 4.6 mph - 0.12 in Rain Rain
7:05 PM 42.8 °F - 41.0 °F 93% 29.51 in 4.0 mi Calm Calm - 0.02 in Rain Rain
7:16 PM 42.8 °F - 41.0 °F 93% 29.51 in 5.0 mi Calm Calm - 0.05 in Rain Rain
7:38 PM 42.8 °F - 39.2 °F 87% 29.52 in 2.5 mi Calm Calm - 0.10 in Rain Rain
7:47 PM 41.0 °F - 39.2 °F 93% 29.53 in 3.0 mi Calm Calm - 0.12 in Rain Rain
7:54 PM 41.0 °F - 39.9 °F 96% 29.55 in 3.0 mi Calm Calm - 0.13 in Rain Light Rain
8:01 PM 42.8 °F 41.1 °F 39.2 °F 87% 29.53 in 2.5 mi North 3.5 mph - 0.02 in Rain Rain
8:09 PM 42.8 °F 38.0 °F 39.2 °F 87% 29.54 in 5.0 mi North 8.1 mph - 0.03 in Rain Rain
8:54 PM 39.9 °F 33.9 °F 37.0 °F 89% 29.58 in 8.0 mi North 9.2 mph - 0.09 in Rain Light Rain
9:22 PM 39.2 °F 35.9 °F 37.4 °F 93% 29.57 in 10.0 mi Variable 4.6 mph - 0.02 in Rain Light Rain
9:54 PM 39.0 °F - 37.0 °F 93% 29.60 in 10.0 mi Calm Calm - 0.02 in Rain Light Rain
10:54 PM 37.9 °F - 36.0 °F 93% 29.59 in 10.0 mi Calm Calm - 0.01 in Rain Light Rain
11:44 PM 37.4 °F 32.1 °F 33.8 °F 87% 29.59 in 10.0 mi SSW 6.9 mph - 0.01 in Rain Light Rain
11:54 PM 37.0 °F 31.6 °F 34.0 °F 89% 29.61 in 10.0 mi SW 6.9 mph - 0.02 in Rain Light Rain